Theta_e
348 343 342 341 340 337 335 334 333 334 343 345 345 342 340 343 344 345 343 341 339 339 339 343 344 344 343 338 337 336 333 330 333 332 334 336 338 339 339 339 337 337 340
348 343 344 343 342 342 338 335 332 331 336 345 345 346 345 345 345 345 342 340 339 339 339 340 340 343 341 337 335 325 320 324 325 327 322 322 328 333 335 336 337 336 338
348 345 343 345 343 342 340 337 335 333 330 342 345 345 345 344 345 344 341 340 339 339 339 339 339 339 339 336 324 319 328 329 330 330 330 328 329 332 331 330 332 332 335
347 346 344 344 344 343 340 341 340 339 334 338 343 343 343 345 345 344 341 340 341 337 337 338 338 339 337 331 321 322 329 330 330 331 331 331 332 333 333 332 332 331 330
347 345 344 344 343 341 342 340 339 341 339 338 342 343 343 344 344 343 340 339 338 337 336 337 337 338 336 328 323 320 330 332 334 334 334 333 332 333 333 332 331 331 331
346 345 344 343 343 339 342 340 339 341 340 336 343 342 342 344 342 341 337 338 337 336 337 335 335 336 335 329 321 324 331 332 333 333 334 333 332 332 332 332 331 331 331
345 345 345 343 342 339 340 341 336 342 341 334 342 342 341 343 342 338 337 337 336 337 336 337 334 333 335 330 323 325 330 331 333 333 333 332 333 333 333 331 331 331 331
344 345 345 342 341 337 339 341 335 340 341 337 340 339 342 342 340 337 337 336 337 336 336 337 336 337 335 330 324 323 329 330 332 333 333 330 332 334 333 331 328 329 328
338 342 343 341 340 337 339 341 337 337 341 341 339 341 342 339 338 337 336 336 337 336 335 333 333 332 327 324 323 322 327 329 330 331 333 330 329 334 331 328 327 326 326
335 333 335 340 340 337 339 341 336 328 341 342 342 342 339 337 334 335 335 335 335 334 332 328 324 322 321 320 320 318 324 327 327 328 331 330 328 333 330 331 327 326 325
333 333 326 324 328 330 338 341 337 328 341 342 342 340 337 336 332 333 334 335 334 332 327 325 322 321 320 319 317 317 319 324 326 326 326 323 325 329 327 327 327 326 325
329 330 328 324 324 324 326 338 334 330 339 340 339 338 336 334 333 332 333 334 334 329 325 323 321 320 320 319 318 317 323 321 324 325 326 324 326 328 328 327 328 327 327
325 325 325 324 322 323 324 332 335 332 336 337 336 335 335 332 334 334 333 331 330 325 323 322 320 319 318 322 322 320 324 325 324 326 325 327 327 328 329 329 328 327 328
324 323 323 322 323 324 323 326 335 331 332 332 336 335 335 332 332 334 332 328 325 323 324 323 322 319 322 323 323 323 324 327 328 328 329 329 329 329 328 328 329 329 327
326 323 323 324 324 324 327 330 335 331 330 332 334 333 333 334 332 333 330 329 330 327 329 327 327 325 323 323 324 325 327 330 330 330 330 330 330 327 327 327 328 330 330
326 324 324 325 325 325 330 332 335 333 331 330 332 332 332 332 331 330 329 329 329 328 326 326 325 324 324 324 327 329 330 331 331 330 331 330 330 329 328 327 326 326 328
326 326 325 325 326 328 330 332 334 335 332 331 330 329 330 330 330 329 328 328 327 326 325 325 324 325 327 328 330 331 332 332 331 331 331 330 329 329 330 329 329 326 326
327 327 326 326 327 329 331 333 332 334 335 333 331 330 332 330 329 328 328 327 328 328 328 326 325 326 329 330 331 331 332 332 331 331 329 329 330 329 329 329 329 329 327
327 327 326 326 326 326 327 328 332 334 334 334 334 334 334 333 332 332 333 333 333 332 330 328 325 327 329 330 330 331 332 331 330 329 329 329 329 328 329 329 328 328 327
327 328 327 326 326 326 324 325 328 334 335 334 335 336 335 337 336 335 333 332 333 333 332 330 328 329 330 330 330 330 331 330 330 329 329 328 327 325 325 327 328 327 326
329 328 328 327 325 329 331 329 330 332 334 336 335 336 336 336 335 336 334 332 334 334 333 331 331 330 329 329 331 331 330 330 328 329 329 328 323 324 324 324 328 328 325
327 328 328 328 327 325 329 329 330 331 331 331 333 334 334 334 334 334 333 333 333 333 333 333 332 331 330 329 330 331 330 330 329 329 327 324 322 323 323 325 327 326 324
323 326 327 327 328 327 328 328 327 329 328 329 329 331 332 332 332 332 332 332 333 332 330 330 331 332 331 330 330 330 328 326 326 326 325 323 321 322 323 324 325 325 323
325 324 326 327 326 327 326 325 327 327 328 328 329 329 329 329 329 329 329 330 330 330 330 329 329 329 330 329 327 328 330 329 323 322 325 323 321 320 322 322 321 322 321
319 324 323 324 327 324 324 324 325 326 327 326 326 327 326 327 324 327 328 330 330 329 329 328 328 329 329 329 329 329 329 328 325 323 321 320 321 320 320 321 320 319 318
316 318 320 324 322 323 323 324 326 326 326 326 326 324 325 324 324 326 327 326 326 328 329 329 329 329 330 327 328 327 324 319 316 316 317 318 317 318 320 319 319 318 317
Wind_Speed
22 28 24 21 20 19 18 18 16 17 16 17 17 16 16 16 17 16 17 18 19 18 16 15 15 17 19 17 15 15 16 17 16 15 15 16 16 16 17 16 15 15 16
27 27 24 21 19 18 17 16 16 16 18 17 18 18 18 18 19 17 17 18 18 18 17 17 15 16 17 15 14 16 19 22 22 21 17 16 14 13 12 12 13 13 13
23 26 26 21 20 18 17 14 14 14 17 19 19 20 19 19 19 18 18 18 18 17 17 17 18 15 14 14 15 18 20 20 19 20 17 16 17 15 15 14 14 13 12
25 25 24 22 19 17 16 15 14 15 16 20 20 22 21 21 19 19 19 20 19 19 17 16 16 15 13 14 15 19 19 16 12 14 15 12 14 14 14 14 14 13 13
26 23 23 22 20 18 16 15 15 13 15 21 21 22 22 23 20 20 20 21 19 19 17 16 16 15 11 13 14 17 19 16 16 16 13 11 12 13 13 12 12 13 13
19 21 22 22 19 19 16 15 14 13 16 23 21 23 23 23 21 21 23 20 19 18 16 15 16 16 11 11 13 16 15 14 15 9 9 8 13 10 11 12 12 11 11
13 16 19 20 19 18 16 15 15 12 15 22 22 23 24 24 22 21 23 20 19 17 18 15 14 14 11 9 10 13 13 13 13 10 7 8 10 9 9 10 10 10 10
13 14 16 18 17 16 16 15 14 13 14 22 21 22 24 24 22 22 23 21 19 17 17 17 16 14 11 9 9 10 12 11 11 8 6 4 9 8 7 8 9 9 9
11 14 13 18 15 14 15 14 13 14 13 20 22 24 26 22 22 21 22 20 17 17 16 15 14 12 11 9 8 8 9 9 9 7 3 4 6 5 5 6 6 7 7
14 16 16 3 11 13 15 15 14 14 14 20 25 26 24 22 20 21 20 19 17 16 16 14 13 11 10 8 7 6 9 8 8 7 4 1 4 4 3 2 4 5 6
20 13 3 25 21 19 11 15 16 16 18 22 24 26 23 21 19 18 19 19 17 16 14 13 12 10 9 8 6 6 8 5 5 4 5 1 2 4 3 3 3 3 6
9 21 34 33 36 36 31 20 19 19 22 22 25 24 21 20 19 18 17 18 17 16 14 12 11 10 9 6 4 5 5 4 5 4 4 2 3 3 2 0 1 2 3
11 8 21 26 21 33 33 20 23 23 25 23 24 22 17 19 21 22 20 18 18 16 14 12 11 10 9 8 6 4 2 5 6 7 5 3 4 3 3 3 4 3 4
19 10 13 20 17 27 28 31 27 28 28 28 25 23 22 23 24 18 18 17 16 16 12 11 9 9 8 6 9 6 9 7 5 9 6 6 4 4 5 6 7 8 7
21 17 12 15 12 19 21 31 31 29 29 28 27 26 23 26 23 19 16 16 15 12 14 12 12 9 10 10 10 10 10 9 9 9 8 8 5 5 6 6 7 8 10
20 22 16 22 18 8 16 16 37 29 28 26 26 24 24 22 25 18 17 17 17 14 13 14 12 11 12 12 11 10 10 10 9 8 8 7 7 5 5 6 5 7 8
21 17 15 11 6 5 12 18 30 27 30 26 25 20 19 19 23 20 19 18 17 15 14 13 13 12 12 12 12 13 14 12 13 9 9 9 8 7 7 5 5 7 6
18 14 16 8 5 5 7 12 21 24 24 25 25 24 21 22 21 20 17 16 15 15 13 13 14 12 12 12 12 13 13 13 11 8 9 8 4 4 4 4 7 7 8
15 15 13 11 10 9 17 10 14 20 22 21 23 25 21 18 18 17 15 14 13 14 12 12 12 13 13 14 15 15 17 15 11 9 11 12 6 5 6 7 7 8 9
13 14 15 16 19 24 23 17 20 14 15 22 21 21 22 19 18 16 14 13 10 13 12 11 12 13 14 15 16 19 7 11 10 10 9 7 6 9 8 7 8 6 6
12 14 17 19 19 19 17 25 19 20 20 18 19 19 17 16 15 13 11 13 12 10 12 12 14 14 16 17 12 14 14 11 15 16 10 7 4 6 6 4 6 5 3
4 9 15 15 21 26 15 7 8 12 19 14 14 13 13 15 14 14 14 14 16 13 12 10 10 5 17 16 15 5 2 9 19 17 10 9 6 5 4 6 4 6 6
3 3 9 9 15 16 10 9 6 6 8 8 8 10 9 9 10 9 11 13 12 11 12 9 12 15 13 14 21 8 2 4 5 12 13 10 8 7 6 6 7 6 5
6 9 4 10 8 13 14 8 6 4 4 6 7 6 6 4 8 12 15 15 16 16 16 16 17 19 20 18 17 28 26 4 2 2 11 11 10 9 11 10 9 11 10
10 4 2 4 12 16 11 11 6 6 6 5 3 9 13 14 17 17 17 17 18 19 20 15 14 16 19 18 18 14 22 7 5 6 2 1 9 9 12 11 10 9 11
10 8 8 9 2 6 9 13 19 17 14 11 12 15 23 22 22 21 23 21 19 19 19 16 13 17 19 14 17 15 12 6 2 5 2 2 13 14 15 14 12 11 12
Wind_Direction
145 159 169 166 163 161 162 164 170 167 162 165 158 152 147 145 142 140 131 128 126 129 126 115 110 103 101 101 100 99 102 102 104 92 91 90 83 75 83 78 78 71 68
155 163 170 172 168 166 165 166 170 177 174 170 164 154 151 148 146 144 134 131 129 129 128 127 124 106 106 102 97 99 101 97 91 80 75 80 79 78 80 83 75 65 64
151 163 172 177 173 173 169 168 169 170 178 175 174 162 157 155 152 145 138 134 132 129 130 129 131 121 115 105 102 106 104 100 98 93 69 67 73 68 67 66 63 63 64
154 167 170 182 179 175 171 172 170 166 172 175 181 171 164 158 154 145 141 140 139 135 131 131 132 130 122 110 107 114 108 100 91 89 95 74 74 69 68 68 69 65 63
159 164 171 185 182 175 177 179 171 170 175 177 182 175 169 159 154 147 144 140 144 139 139 137 139 135 130 118 114 118 110 98 89 94 92 83 79 74 75 73 69 66 63
149 158 173 187 183 176 186 179 173 172 180 178 177 175 170 159 157 150 149 145 150 148 145 147 146 142 139 124 118 121 117 103 98 96 118 106 87 80 77 73 71 69 66
147 161 179 187 182 181 187 183 177 173 181 180 178 176 170 160 156 153 150 151 151 149 148 144 151 143 140 132 122 127 116 103 100 102 108 91 102 86 78 76 74 70 66
157 159 178 187 189 182 187 188 180 175 172 181 180 174 167 157 153 156 154 153 152 154 152 150 147 149 155 144 132 128 124 112 110 112 123 106 110 93 82 71 66 64 62
117 126 191 182 184 181 185 191 188 177 169 177 173 172 159 162 156 155 157 154 150 151 153 154 157 158 156 152 142 136 137 120 128 135 182 116 110 102 81 63 66 60 54
124 85 55 148 171 189 188 193 194 184 165 169 167 164 157 159 159 161 161 158 154 158 160 159 159 160 158 153 149 141 141 119 113 139 121 124 127 106 77 46 68 53 45
217 217 323 313 333 346 209 204 199 189 172 165 165 162 157 160 160 164 164 161 163 166 166 167 167 167 166 159 158 150 147 135 144 153 195 199 137 122 88 92 69 55 40
265 240 259 312 311 296 319 220 200 191 180 171 159 157 156 163 163 164 176 161 169 172 173 176 178 179 176 164 182 172 153 138 177 191 218 221 166 144 148 46 5 11 354
214 237 263 276 291 292 297 278 195 192 181 179 173 160 162 161 169 176 176 171 173 176 179 184 188 190 177 192 216 184 174 186 203 193 215 207 190 193 202 252 279 287 278
199 205 261 279 268 290 284 270 208 188 182 180 180 170 173 171 171 174 183 180 176 181 180 195 193 194 187 209 208 228 208 211 210 199 233 213 206 230 248 268 265 278 281
205 208 195 235 231 274 282 298 192 183 182 179 179 173 181 172 169 177 175 174 182 185 186 201 208 211 200 218 218 225 217 212 215 223 236 244 232 236 252 271 276 282 277
219 222 208 214 203 240 305 300 183 180 174 172 171 178 170 163 170 175 170 180 184 197 187 201 208 211 215 216 223 221 221 230 234 241 232 247 240 241 266 277 274 285 281
219 229 221 224 221 267 281 275 195 176 164 160 170 164 170 178 175 179 180 184 190 194 198 199 213 217 220 225 219 228 224 229 235 226 234 251 248 263 247 255 279 277 283
204 210 195 189 145 126 165 193 211 186 169 166 170 172 174 172 175 183 180 194 192 196 204 212 216 222 226 226 232 233 234 226 234 240 246 246 239 253 254 276 261 258 273
194 202 208 203 186 178 182 197 197 183 187 175 167 170 170 173 175 180 185 192 201 201 206 214 222 223 227 232 240 235 247 221 224 220 248 257 247 259 273 275 274 270 265
200 195 198 196 178 172 161 188 218 176 182 176 181 181 184 183 183 187 189 194 200 207 204 216 228 228 235 233 238 241 227 232 224 235 256 240 272 271 267 261 264 277 195
205 188 198 194 174 183 163 187 196 185 182 176 181 181 181 192 198 192 197 203 207 185 206 221 233 233 237 239 270 230 239 245 259 237 207 234 242 243 247 249 249 235 257
316 211 197 193 187 187 205 185 197 216 187 187 169 168 182 175 187 192 205 217 222 218 209 223 231 276 242 237 240 201 228 259 244 235 205 189 223 252 224 197 209 242 239
349 322 197 176 170 166 166 135 134 157 137 149 179 195 179 176 186 198 209 214 223 227 245 243 260 259 276 250 237 212 235 224 160 182 188 201 214 223 221 224 197 187 193
338 26 198 205 129 160 161 142 158 163 156 166 181 172 212 246 247 233 230 226 228 235 238 241 253 244 240 253 261 272 251 291 171 138 187 192 210 211 217 225 215 216 209
341 320 46 323 175 157 161 192 203 228 232 252 261 261 260 256 250 237 225 219 222 220 226 223 226 236 241 246 245 241 235 254 36 71 118 142 219 229 222 225 224 223 218
348 334 285 241 193 161 187 231 238 231 236 247 244 244 242 232 242 235 240 224 220 242 224 226 222 237 219 210 198 178 189 153 106 93 85 244 277 269 222 222 217 210 224